Location: Bothwell
(42.3833°S, 147.0000°E)
Time: 22:25:24
(UTC+11:00)

CUTE-I - Pass Details

Date: 27 September 2022
Orbit: 810 x 823 km, 98.7° (Epoch: 30 November)

Event Time Altitude Azimuth Distance (km) Brightness Sun altitude
Rises 04:08:48 0° 62° (ENE) 3,337 ? -19.7°
Reaches altitude 10° 04:11:53 10° 81° (E) 2,416 ? -19.1°
Maximum altitude 04:15:15 17° 120° (ESE) 1,964 ? -18.6°
Drops below altitude 10° 04:18:39 10° 159° (SSE) 2,439 ? -18.0°
Sets 04:21:46 0° 178° (S) 3,382 ? -17.4°
